Overview Statistics Trail Chart Weather Telemetry Raw packets
 

This is the latest recevied weather packets stored in our database for station/object N9BID. If no packets are shown the sender has not sent any weather packets the latest 10 day(s).

<< 111 112 113 114 >>
Time Temp. Humidity Pressure Rain* Wind** Luminosity Snow
1787722472 17.78° C 99% 1011.7 hPa 0 mm - 0 W/m² -
1787722166 17.78° C 99% 1011.6 hPa 0 mm - 0 W/m² -
1787721858 17.78° C 99% 1011.5 hPa 0 mm - 0 W/m² -
1787721553 18.33° C 97% 1011.7 hPa 1.27 mm - 0 W/m² -
1787721253 18.33° C 95% 1011.9 hPa 10.16 mm - 0 W/m² -
1787720948 20° C 91% 1012.1 hPa 8.89 mm - 0 W/m² -
1787720648 20° C 86% 1012.2 hPa 0 mm - 0 W/m² -
1787720342 20° C 85% 1012.4 hPa 0 mm - 0 W/m² -
1787720041 20° C 85% 1012.4 hPa 0 mm - 0 W/m² -
1787719737 20° C 85% 1012.3 hPa 0 mm - 0 W/m² -
1787719436 20° C 86% 1011.9 hPa 0 mm - 0 W/m² -
1787719132 19.44° C 86% 1011.9 hPa 0 mm - 0 W/m² -
1787718827 19.44° C 87% 1012 hPa 0 mm - 0 W/m² -
1787718523 19.44° C 87% 1012 hPa 0 mm - 0 W/m² -
1787718217 19.44° C 87% 1011.8 hPa 0 mm - 0 W/m² -
1787717914 19.44° C 87% 1012 hPa 0 mm - 0 W/m² -
1787717610 19.44° C 87% 1012.1 hPa 0 mm - 0 W/m² -
1787717305 19.44° C 87% 1012 hPa 0 mm - 0 W/m² -
1787717005 19.44° C 86% 1012.2 hPa 0 mm - 0 W/m² -
1787716699 19.44° C 86% 1012.2 hPa 0 mm - 0 W/m² -
1787716394 19.44° C 86% 1012.5 hPa 0 mm - 0 W/m² -
1787716094 20° C 85% 1012.3 hPa 0 mm - 0 W/m² -
1787715789 20° C 85% 1012.7 hPa 0 mm - 0 W/m² -

* Rain latest hour (hover to see other rain measurements)
** Current wind speed in m/s (hover to see current wind gust speed)